| time (UTC) | temp F | wind direction | speed MPH | gust MPH | rain 1hr in | rain 24hr in | rain mn in | humidity % | barometer mb |
| 20260831045403 | 75 | 158 | 0.0 | 5.0 | 0.00 | 0.00 | 0.00 | 1018.0 | |
| 20260831043903 | 75 | 159 | 0.0 | 6.0 | 0.00 | 0.00 | 0.00 | 1018.3 | |
| 20260831043402 | 75 | 155 | 0.0 | 5.0 | 0.00 | 0.00 | 0.00 | 1018.0 | |
| 20260831042903 | 75 | 163 | 0.0 | 3.0 | 0.00 | 0.00 | 0.00 | 1018.0 | |
| 20260831042402 | 75 | 158 | 0.0 | 3.0 | 0.00 | 0.00 | 0.00 | 1018.0 | |
| 20260831041903 | 75 | 148 | 0.0 | 2.0 | 0.00 | 0.00 | 0.00 | 1018.0 | |
| 20260831041424 | 75 | 158 | 0.0 | 6.0 | 0.00 | 0.00 | 0.00 | 1018.0 | |
| 20260831040902 | 75 | 158 | 0.0 | 6.0 | 0.00 | 0.00 | 0.00 | 1018.7 | |
| 20260831040403 | 75 | 158 | 0.0 | 0.0 | 0.00 | 0.00 | 0.00 | 1018.3 | |
| 20260831035924 | 75 | 158 | 0.0 | 0.0 | 0.00 | 0.00 | 0.00 | 1018.3 | |
| 20260831035424 | 75 | 158 | 0.0 | 0.0 | 0.00 | 0.00 | 0.00 | 1018.3 | |
| 20260831034902 | 75 | 158 | 0.0 | 0.0 | 0.00 | 0.00 | 0.00 | 1018.0 | |
| 20260831034403 | 76 | 158 | 0.0 | 2.0 | 0.00 | 0.00 | 0.00 | 1018.3 | |
| 20260831033902 | 76 | 113 | 0.0 | 2.0 | 0.00 | 0.00 | 0.00 | 1018.0 | |
| 20260831033403 | 76 | 158 | 0.0 | 6.0 | 0.00 | 0.00 | 0.00 | 1018.7 | |
| 20260831032903 | 76 | 135 | 0.0 | 6.0 | 0.00 | 0.00 | 0.00 | 1018.3 | |
| 20260831032403 | 76 | 35 | 6.0 | 6.0 | 0.00 | 0.00 | 0.00 | 1018.3 | |
| 20260831031903 | 76 | 338 | 0.0 | 0.0 | 0.00 | 0.00 | 0.00 | 1018.3 | |
| 20260831031403 | 77 | 180 | 0.0 | 0.0 | 0.00 | 0.00 | 0.00 | 1018.3 | |
| 20260831030903 | 77 | 135 | 0.0 | 0.0 | 0.00 | 0.00 | 0.00 | 1018.7 | |
| 20260831030403 | 77 | 158 | 0.0 | 1.0 | 0.00 | 0.00 | 0.00 | 1018.3 | |
| 20260831025903 | 77 | 154 | 0.0 | 1.0 | 0.00 | 0.00 | 0.00 | 1018.3 | |
| 20260831025403 | 77 | 203 | 0.0 | 3.0 | 0.00 | 0.00 | 0.00 | 1018.3 | |
| 20260831024903 | 77 | 158 | 0.0 | 3.0 | 0.00 | 0.00 | 0.00 | 1018.0 | |
| 20260831024402 | 77 | 159 | 0.0 | 6.0 | 0.00 | 0.00 | 0.00 | 1018.7 | |
| 20260831023903 | 77 | 129 | 0.0 | 6.0 | 0.00 | 0.00 | 0.00 | 1018.3 | |
| 20260831023403 | 77 | 140 | 0.0 | 1.0 | 0.00 | 0.00 | 0.00 | 1018.3 | |
| 20260831022903 | 77 | 158 | 0.0 | 5.0 | 0.00 | 0.00 | 0.00 | 1018.0 | |
| 20260831022403 | 77 | 140 | 0.0 | 5.0 | 0.00 | 0.00 | 0.00 | 1018.3 | |
| 20260831021903 | 77 | 176 | 0.0 | 1.0 | 0.00 | 0.00 | 0.00 | 1018.3 | |
| 20260831021403 | 77 | 158 | 0.0 | 6.0 | 0.00 | 0.00 | 0.00 | 1018.7 | |
| 20260831020902 | 78 | 202 | 0.0 | 6.0 | 0.00 | 0.00 | 0.00 | 1018.7 | |
| 20260831020403 | 77 | 158 | 0.0 | 2.0 | 0.00 | 0.00 | 0.00 | 1018.7 | |
| 20260831015904 | 77 | 180 | 0.0 | 1.0 | 0.00 | 0.00 | 0.00 | 1018.0 | |
| 20260831015403 | 77 | 158 | 0.0 | 6.0 | 0.00 | 0.00 | 0.00 | 1018.0 | |
| 20260831014902 | 77 | 158 | 0.0 | 6.0 | 0.00 | 0.00 | 0.00 | 1018.0 | |
| 20260831014403 | 77 | 135 | 0.0 | 0.0 | 0.00 | 0.00 | 0.00 | 1017.6 | |
| 20260831013903 | 78 | 45 | 0.0 | 0.0 | 0.00 | 0.00 | 0.00 | 1018.3 | |
| 20260831013403 | 78 | 68 | 0.0 | 0.0 | 0.00 | 0.00 | 0.00 | 1018.7 | |
| 20260831012903 | 78 | 158 | 0.0 | 0.0 | 0.00 | 0.00 | 0.00 | 1018.0 | |
| 20260831012403 | 78 | 203 | 0.0 | 0.0 | 0.00 | 0.00 | 0.00 | 1018.0 | |
| 20260831011903 | 78 | 203 | 0.0 | 0.0 | 0.00 | 0.00 | 0.00 | 1018.7 | |
| 20260831011403 | 78 | 338 | 0.0 | 0.0 | 0.00 | 0.00 | 0.00 | 1017.6 | |
| 20260831010903 | 79 | 360 | 0.0 | 0.0 | 0.00 | 0.00 | 0.00 | 1018.0 | |
| 20260831010403 | 79 | 293 | 0.0 | 0.0 | 0.00 | 0.00 | 0.00 | 1018.3 | |
| 20260831005902 | 79 | 225 | 0.0 | 0.0 | 0.00 | 0.00 | 0.00 | 1017.6 | |
| 20260831005424 | 79 | 23 | 0.0 | 0.0 | 0.00 | 0.00 | 0.00 | 1018.0 | |
| 20260831004903 | 80 | 338 | 0.0 | 0.0 | 0.00 | 0.00 | 0.00 | 1017.6 | |
| 20260831004424 | 80 | 23 | 0.0 | 0.0 | 0.00 | 0.00 | 0.00 | 1017.3 | |
| 20260831003924 | 80 | 338 | 0.0 | 0.0 | 0.00 | 0.00 | 0.00 | 1017.6 | |
| 20260831003403 | 81 | 158 | 0.0 | 6.0 | 0.00 | 0.00 | 0.00 | 1017.6 | |
| 20260831002924 | 81 | 155 | 1.0 | 6.0 | 0.00 | 0.00 | 0.00 | 1017.6 | |
| 20260831002424 | 81 | 180 | 0.0 | 0.0 | 0.00 | 0.00 | 0.00 | 1017.3 | |
| 20260831001903 | 82 | 45 | 0.0 | 0.0 | 0.00 | 0.00 | 0.00 | 1017.3 | |
| 20260831001403 | 83 | 23 | 0.0 | 6.0 | 0.00 | 0.00 | 0.00 | 1017.3 | |
| 20260831000903 | 83 | 338 | 0.0 | 6.0 | 0.00 | 0.00 | 0.00 | 1016.6 | |
| 20260831000425 | 84 | 360 | 0.0 | 5.0 | 0.00 | 0.00 | 0.00 | 1017.3 | |
| 20260830235903 | 84 | 310 | 0.0 | 5.0 | 0.00 | 0.00 | 0.00 | 1017.3 | |
| 20260830235402 | 84 | 327 | 0.0 | 6.0 | 0.00 | 0.00 | 0.00 | 1017.3 | |
| 20260830234924 | 84 | 313 | 0.0 | 6.0 | 0.00 | 0.00 | 0.00 | 1017.3 | |
| 20260830234424 | 83 | 334 | 0.0 | 3.0 | 0.00 | 0.00 | 0.00 | 1017.0 | |
| 20260830233903 | 84 | 308 | 0.0 | 6.0 | 0.00 | 0.00 | 0.00 | 1017.3 | |
| 20260830233403 | 84 | 357 | 0.0 | 6.0 | 0.00 | 0.00 | 0.00 | 1017.3 | |
| 20260830232903 | 85 | 292 | 1.0 | 6.0 | 0.00 | 0.00 | 0.00 | 1017.3 | |
| 20260830232403 | 85 | 293 | 0.0 | 6.0 | 0.00 | 0.00 | 0.00 | 1016.6 | |
| 20260830230924 | 87 | 272 | 1.0 | 4.0 | 0.00 | 0.00 | 0.00 | 1017.3 | |
| 20260830230403 | 88 | 286 | 0.0 | 4.0 | 0.00 | 0.00 | 0.00 | 1017.3 | |
| 20260830225903 | 88 | 282 | 2.0 | 6.0 | 0.00 | 0.00 | 0.00 | 1017.3 | |
| 20260830225404 | 89 | 288 | 4.0 | 6.0 | 0.00 | 0.00 | 0.00 | 1017.0 | |
| 20260830224903 | 89 | 290 | 3.0 | 6.0 | 0.00 | 0.00 | 0.00 | 1017.3 | |
| 20260830224403 | 89 | 308 | 2.0 | 6.0 | 0.00 | 0.00 | 0.00 | 1017.3 | |
| 20260830223924 | 87 | 202 | 1.0 | 6.0 | 0.00 | 0.00 | 0.00 | 1017.3 | |
| 20260830223403 | 89 | 286 | 3.0 | 6.0 | 0.00 | 0.00 | 0.00 | 1016.6 | |
| 20260830222902 | 88 | 149 | 0.0 | 6.0 | 0.00 | 0.00 | 0.00 | 1016.6 | |
| 20260830222403 | 87 | 191 | 0.0 | 6.0 | 0.00 | 0.00 | 0.00 | 1017.0 | |
| 20260830221903 | 88 | 252 | 2.0 | 5.0 | 0.00 | 0.00 | 0.00 | 1017.3 | |
| 20260830221403 | 87 | 192 | 2.0 | 5.0 | 0.00 | 0.00 | 0.00 | 1016.6 | |
| 20260830220903 | 88 | 272 | 3.0 | 6.0 | 0.00 | 0.00 | 0.00 | 1017.3 | |
| 20260830220424 | 88 | 269 | 2.0 | 6.0 | 0.00 | 0.00 | 0.00 | 1017.0 | |
| 20260830215903 | 86 | 187 | 2.0 | 6.0 | 0.00 | 0.00 | 0.00 | 1017.0 | |
| 20260830215403 | 87 | 189 | 0.0 | 3.0 | 0.00 | 0.00 | 0.00 | 1017.0 | |
| 20260830214903 | 89 | 257 | 2.0 | 9.0 | 0.00 | 0.00 | 0.00 | 1017.0 | |
| 20260830214403 | 89 | 240 | 2.0 | 9.0 | 0.00 | 0.00 | 0.00 | 1016.6 | |
| 20260830213925 | 89 | 279 | 4.0 | 7.0 | 0.00 | 0.00 | 0.00 | 1017.0 | |
| 20260830213403 | 88 | 279 | 3.0 | 6.0 | 0.00 | 0.00 | 0.00 | 1017.0 | |
| 20260830212903 | 87 | 302 | 4.0 | 6.0 | 0.00 | 0.00 | 0.00 | 1017.3 | |
| 20260830212424 | 86 | 215 | 0.0 | 4.0 | 0.00 | 0.00 | 0.00 | 1017.3 | |
| 20260830211902 | 85 | 189 | 2.0 | 4.0 | 0.00 | 0.00 | 0.00 | 1017.0 | |
| 20260830211403 | 85 | 209 | 0.0 | 4.0 | 0.00 | 0.00 | 0.00 | 1017.3 | |
| 20260830210902 | 85 | 246 | 0.0 | 6.0 | 0.00 | 0.00 | 0.00 | 1017.3 | |
| 20260830210403 | 85 | 284 | 2.0 | 6.0 | 0.00 | 0.00 | 0.00 | 1017.6 | |
| 20260830205903 | 85 | 202 | 1.0 | 3.0 | 0.00 | 0.00 | 0.00 | 1017.3 | |
| 20260830205403 | 85 | 221 | 0.0 | 5.0 | 0.00 | 0.00 | 0.00 | 1017.0 | |
| 20260830204403 | 85 | 176 | 0.0 | 5.0 | 0.00 | 0.00 | 0.00 | 1017.0 | |
| 20260830203903 | 84 | 214 | 2.0 | 5.0 | 0.00 | 0.00 | 0.00 | 1017.0 | |
| 20260830203403 | 85 | 185 | 2.0 | 4.0 | 0.00 | 0.00 | 0.00 | 1017.0 | |
| 20260830202903 | 85 | 193 | 2.0 | 5.0 | 0.00 | 0.00 | 0.00 | 1016.3 | |
| 20260830202402 | 85 | 194 | 2.0 | 5.0 | 0.00 | 0.00 | 0.00 | 1017.3 | |
| 20260830201903 | 85 | 189 | 2.0 | 5.0 | 0.00 | 0.00 | 0.00 | 1017.0 | |
| 20260830201402 | 84 | 187 | 2.0 | 5.0 | 0.00 | 0.00 | 0.00 | 1017.0 | |
| 20260830200903 | 85 | 204 | 2.0 | 6.0 | 0.00 | 0.00 | 0.00 | 1017.0 | |
| 20260830200403 | 85 | 193 | 0.0 | 6.0 | 0.00 | 0.00 | 0.00 | 1017.0 | |
| 20260830195903 | 84 | 179 | 1.0 | 3.0 | 0.00 | 0.00 | 0.00 | 1017.0 | |
| 20260830195403 | 85 | 179 | 2.0 | 5.0 | 0.00 | 0.00 | 0.00 | 1017.6 | |
| 20260830194904 | 85 | 213 | 2.0 | 5.0 | 0.00 | 0.00 | 0.00 | 1018.3 | |
| 20260830194403 | 85 | 269 | 1.0 | 6.0 | 0.00 | 0.00 | 0.00 | 1018.7 | |
| 20260830193903 | 85 | 360 | 0.0 | 6.0 | 0.00 | 0.00 | 0.00 | 1018.3 | |
| 20260830193403 | 85 | 190 | 1.0 | 4.0 | 0.00 | 0.00 | 0.00 | 1019.0 | |
| 20260830192903 | 86 | 193 | 2.0 | 8.0 | 0.00 | 0.00 | 0.00 | 1019.0 | |
| 20260830192403 | 87 | 282 | 5.0 | 8.0 | 0.00 | 0.00 | 0.00 | 1018.7 | |
| 20260830191903 | 87 | 185 | 2.0 | 6.0 | 0.00 | 0.00 | 0.00 | 1019.0 | |
| 20260830191402 | 86 | 304 | 3.0 | 6.0 | 0.00 | 0.00 | 0.00 | 1018.7 | |
| 20260830190903 | 86 | 180 | 1.0 | 6.0 | 0.00 | 0.00 | 0.00 | 1018.3 | |
| 20260830190402 | 86 | 277 | 2.0 | 5.0 | 0.00 | 0.00 | 0.00 | 1018.7 | |
| 20260830185903 | 86 | 216 | 0.0 | 5.0 | 0.00 | 0.00 | 0.00 | 1019.0 | |
| 20260830185403 | 86 | 257 | 1.0 | 7.0 | 0.00 | 0.00 | 0.00 | 1018.7 | |
| 20260830184903 | 87 | 315 | 5.0 | 9.0 | 0.00 | 0.00 | 0.00 | 1018.7 | |
| 20260830184403 | 87 | 279 | 3.0 | 9.0 | 0.00 | 0.00 | 0.00 | 1018.7 | |
| 20260830183903 | 87 | 311 | 3.0 | 11.0 | 0.00 | 0.00 | 0.00 | 1019.3 | |
| 20260830183403 | 87 | 291 | 3.0 | 11.0 | 0.00 | 0.00 | 0.00 | 1019.7 | |
| 20260830182924 | 87 | 293 | 5.0 | 11.0 | 0.00 | 0.00 | 0.00 | 1019.3 | |
| 20260830182402 | 87 | 295 | 5.0 | 9.0 | 0.00 | 0.00 | 0.00 | 1019.7 | |
| 20260830181903 | 87 | 346 | 3.0 | 9.0 | 0.00 | 0.00 | 0.00 | 1020.0 | |
| 20260830181402 | 86 | 290 | 5.0 | 9.0 | 0.00 | 0.00 | 0.00 | 1020.0 | |
| 20260830180903 | 85 | 276 | 5.0 | 9.0 | 0.00 | 0.00 | 0.00 | 1020.0 | |
| 20260830180424 | 85 | 210 | 2.0 | 8.0 | 0.00 | 0.00 | 0.00 | 1020.0 | |
| 20260830175903 | 86 | 271 | 3.0 | 8.0 | 0.00 | 0.00 | 0.00 | 1019.3 | |
| 20260830175403 | 86 | 289 | 2.0 | 12.0 | 0.00 | 0.00 | 0.00 | 1020.4 | |
| 20260830174903 | 85 | 293 | 5.0 | 12.0 | 0.00 | 0.00 | 0.00 | 1020.0 | |
| 20260830174425 | 85 | 278 | 4.0 | 11.0 | 0.00 | 0.00 | 0.00 | 1019.7 | |
| 20260830173903 | 85 | 303 | 3.0 | 12.0 | 0.00 | 0.00 | 0.00 | 1020.0 | |
| 20260830173403 | 86 | 287 | 5.0 | 12.0 | 0.00 | 0.00 | 0.00 | 1020.0 | |
| 20260830172902 | 86 | 304 | 6.0 | 12.0 | 0.00 | 0.00 | 0.00 | 1020.4 | |
| 20260830172403 | 86 | 290 | 5.0 | 12.0 | 0.00 | 0.00 | 0.00 | 1020.0 | |
| 20260830171903 | 87 | 271 | 3.0 | 10.0 | 0.00 | 0.00 | 0.00 | 1019.7 | |
| 20260830171403 | 87 | 308 | 3.0 | 10.0 | 0.00 | 0.00 | 0.00 | 1020.0 | |
| 20260830170903 | 86 | 320 | 3.0 | 13.0 | 0.00 | 0.00 | 0.00 | 1020.4 | |
| 20260830170403 | 86 | 310 | 3.0 | 13.0 | 0.00 | 0.00 | 0.00 | 1020.0 | |
| 20260830165902 | 86 | 253 | 2.0 | 9.0 | 0.00 | 0.00 | 0.00 | 1020.7 | |
| 20260830165403 | 85 | 235 | 2.0 | 12.0 | 0.00 | 0.00 | 0.00 | 1020.0 | |
| 20260830164903 | 86 | 294 | 6.0 | 12.0 | 0.00 | 0.00 | 0.00 | 1020.0 | |
| 20260830164424 | 86 | 278 | 2.0 | 7.0 | 0.00 | 0.00 | 0.00 | 1020.7 | |
| 20260830163924 | 86 | 265 | 3.0 | 7.0 | 0.00 | 0.00 | 0.00 | 1020.7 | |
| 20260830163425 | 86 | 276 | 2.0 | 6.0 | 0.00 | 0.00 | 0.00 | 1020.4 | |
| 20260830162924 | 85 | 310 | 1.0 | 6.0 | 0.00 | 0.00 | 0.00 | 1020.4 | |
| 20260830162403 | 85 | 289 | 3.0 | 7.0 | 0.00 | 0.00 | 0.00 | 1020.7 | |
| 20260830161902 | 85 | 300 | 3.0 | 7.0 | 0.00 | 0.00 | 0.00 | 1020.0 | |
| 20260830161403 | 85 | 281 | 1.0 | 5.0 | 0.00 | 0.00 | 0.00 | 1020.4 | |
| 20260830160903 | 85 | 269 | 2.0 | 5.0 | 0.00 | 0.00 | 0.00 | 1020.4 | |
| 20260830160403 | 84 | 160 | 0.0 | 4.0 | 0.00 | 0.00 | 0.00 | 1020.4 | |
| 20260830155902 | 84 | 255 | 1.0 | 4.0 | 0.00 | 0.00 | 0.00 | 1020.0 | |
| 20260830155403 | 84 | 143 | 1.0 | 4.0 | 0.00 | 0.00 | 0.00 | 1020.4 | |
| 20260830154903 | 83 | 239 | 0.0 | 4.0 | 0.00 | 0.00 | 0.00 | 1020.0 | |
| 20260830154402 | 83 | 207 | 0.0 | 4.0 | 0.00 | 0.00 | 0.00 | 1020.0 | |
| 20260830153903 | 82 | 200 | 2.0 | 3.0 | 0.00 | 0.00 | 0.00 | 1019.7 | |
| 20260830153424 | 81 | 164 | 0.0 | 3.0 | 0.00 | 0.00 | 0.00 | 1019.3 | |
| 20260830152924 | 81 | 161 | 0.0 | 3.0 | 0.00 | 0.00 | 0.00 | 1019.7 | |
| 20260830152403 | 81 | 202 | 0.0 | 3.0 | 0.00 | 0.00 | 0.00 | 1019.7 | |
| 20260830151903 | 81 | 171 | 0.0 | 6.0 | 0.00 | 0.00 | 0.00 | 1019.3 | |
| 20260830151403 | 81 | 170 | 0.0 | 6.0 | 0.00 | 0.00 | 0.00 | 1020.0 | |
| 20260830150903 | 81 | 203 | 2.0 | 4.0 | 0.00 | 0.00 | 0.00 | 1019.3 | |
| 20260830150403 | 81 | 200 | 1.0 | 3.0 | 0.00 | 0.00 | 0.00 | 1019.7 | |
| 20260830145903 | 81 | 203 | 1.0 | 3.0 | 0.00 | 0.00 | 0.00 | 1019.7 | |
| 20260830145403 | 80 | 194 | 2.0 | 3.0 | 0.00 | 0.00 | 0.00 | 1019.7 | |
| 20260830144902 | 80 | 193 | 2.0 | 3.0 | 0.00 | 0.00 | 0.00 | 1019.0 | |
| 20260830144403 | 80 | 179 | 2.0 | 3.0 | 0.00 | 0.00 | 0.00 | 1019.0 | |
| 20260830143924 | 80 | 189 | 0.0 | 4.0 | 0.00 | 0.00 | 0.00 | 1019.3 | |
| 20260830143403 | 80 | 186 | 2.0 | 4.0 | 0.00 | 0.00 | 0.00 | 1018.7 | |
| 20260830142903 | 81 | 185 | 0.0 | 4.0 | 0.00 | 0.00 | 0.00 | 1019.3 | |
| 20260830142424 | 80 | 192 | 2.0 | 4.0 | 0.00 | 0.00 | 0.00 | 1019.3 | |
| 20260830141924 | 80 | 204 | 2.0 | 4.0 | 0.00 | 0.00 | 0.00 | 1019.3 | |
| 20260830141403 | 80 | 279 | 1.0 | 3.0 | 0.00 | 0.00 | 0.00 | 1018.7 | |
| 20260830140902 | 79 | 194 | 1.0 | 4.0 | 0.00 | 0.00 | 0.00 | 1018.7 | |
| 20260830140403 | 79 | 168 | 0.0 | 4.0 | 0.00 | 0.00 | 0.00 | 1018.3 | |
| 20260830135902 | 78 | 200 | 1.0 | 6.0 | 0.00 | 0.00 | 0.00 | 1018.7 | |
| 20260830135403 | 78 | 198 | 2.0 | 6.0 | 0.00 | 0.00 | 0.00 | 1018.3 | |
| 20260830134902 | 78 | 189 | 2.0 | 5.0 | 0.00 | 0.00 | 0.00 | 1018.3 | |
| 20260830134403 | 78 | 193 | 1.0 | 3.0 | 0.00 | 0.00 | 0.00 | 1019.0 | |
| 20260830133925 | 77 | 204 | 1.0 | 3.0 | 0.00 | 0.00 | 0.00 | 1018.7 | |
| 20260830133403 | 77 | 200 | 1.0 | 2.0 | 0.00 | 0.00 | 0.00 | 1018.3 | |
| 20260830132903 | 77 | 236 | 0.0 | 2.0 | 0.00 | 0.00 | 0.00 | 1018.3 | |
| 20260830132403 | 76 | 190 | 1.0 | 3.0 | 0.00 | 0.00 | 0.00 | 1018.3 | |
| 20260830131903 | 76 | 203 | 0.0 | 6.0 | 0.00 | 0.00 | 0.00 | 1018.0 | |
| 20260830131402 | 76 | 195 | 0.0 | 6.0 | 0.00 | 0.00 | 0.00 | 1018.0 | |
| 20260830130903 | 76 | 165 | 0.0 | 3.0 | 0.00 | 0.00 | 0.00 | 1018.7 | |
| 20260830130403 | 75 | 204 | 0.0 | 3.0 | 0.00 | 0.00 | 0.00 | 1018.7 | |
| 20260830125903 | 74 | 153 | 0.0 | 3.0 | 0.00 | 0.00 | 0.00 | 1018.7 | |
| 20260830125402 | 74 | 194 | 0.0 | 3.0 | 0.00 | 0.00 | 0.00 | 1018.7 | |
| 20260830123905 | 72 | 202 | 0.0 | 6.0 | 0.00 | 0.00 | 0.00 | 1018.7 | |
| 20260830123403 | 72 | 221 | 0.0 | 6.0 | 0.00 | 0.00 | 0.00 | 1019.3 | |
| 20260830122903 | 71 | 202 | 0.0 | 4.0 | 0.00 | 0.00 | 0.00 | 1019.3 | |
| 20260830122403 | 71 | 182 | 0.0 | 6.0 | 0.00 | 0.00 | 0.00 | 1019.0 | |
| 20260830121924 | 70 | 199 | 0.0 | 6.0 | 0.00 | 0.00 | 0.00 | 1019.3 | |
| 20260830121404 | 70 | 188 | 0.0 | 6.0 | 0.00 | 0.00 | 0.00 | 1019.7 | |
| 20260830120924 | 70 | 171 | 0.0 | 5.0 | 0.00 | 0.00 | 0.00 | 1019.3 | |
| 20260830120403 | 69 | 169 | 0.0 | 1.0 | 0.00 | 0.00 | 0.00 | 1019.3 | |
| 20260830115903 | 69 | 180 | 0.0 | 6.0 | 0.00 | 0.00 | 0.00 | 1019.3 | |
| 20260830115403 | 69 | 180 | 0.0 | 6.0 | 0.00 | 0.00 | 0.00 | 1019.0 | |
| 20260830114902 | 69 | 180 | 0.0 | 2.0 | 0.00 | 0.00 | 0.00 | 1019.0 | |
| 20260830114403 | 69 | 180 | 0.0 | 6.0 | 0.00 | 0.00 | 0.00 | 1019.3 | |
| 20260830113903 | 69 | 203 | 0.0 | 6.0 | 0.00 | 0.00 | 0.00 | 1019.3 | |
| 20260830113403 | 69 | 293 | 0.0 | 0.0 | 0.00 | 0.00 | 0.00 | 1019.3 | |
| 20260830111903 | 70 | 163 | 0.0 | 6.0 | 0.00 | 0.00 | 0.00 | 1018.7 | |
| 20260830111403 | 70 | 177 | 0.0 | 6.0 | 0.00 | 0.00 | 0.00 | 1019.0 | |
| 20260830105902 | 70 | 186 | 0.0 | 6.0 | 0.00 | 0.00 | 0.00 | 1018.7 | |
| 20260830105403 | 70 | 180 | 0.0 | 2.0 | 0.00 | 0.00 | 0.00 | 1018.7 | |
| 20260830104902 | 70 | 202 | 0.0 | 2.0 | 0.00 | 0.00 | 0.00 | 1018.3 | |
| 20260830104403 | 70 | 175 | 0.0 | 2.0 | 0.00 | 0.00 | 0.00 | 1018.7 | |
| 20260830103902 | 70 | 180 | 0.0 | 5.0 | 0.00 | 0.00 | 0.00 | 1018.7 | |
| 20260830103403 | 70 | 166 | 0.0 | 6.0 | 0.00 | 0.00 | 0.00 | 1019.0 | |
| 20260830102904 | 70 | 180 | 1.0 | 6.0 | 0.00 | 0.00 | 0.00 | 1018.7 | |
| 20260830102404 | 70 | 179 | 0.0 | 6.0 | 0.00 | 0.00 | 0.00 | 1019.0 | |
| 20260830101904 | 70 | 170 | 0.0 | 3.0 | 0.00 | 0.00 | 0.00 | 1018.7 | |
| 20260830101403 | 70 | 180 | 0.0 | 3.0 | 0.00 | 0.00 | 0.00 | 1019.0 | |
| 20260830100903 | 71 | 165 | 0.0 | 4.0 | 0.00 | 0.00 | 0.00 | 1018.7 | |
| 20260830100423 | 71 | 184 | 0.0 | 4.0 | 0.00 | 0.00 | 0.00 | 1019.3 | |
| 20260830095924 | 71 | 180 | 0.0 | 5.0 | 0.00 | 0.00 | 0.00 | 1019.0 | |
| 20260830095403 | 71 | 186 | 0.0 | 5.0 | 0.00 | 0.00 | 0.00 | 1019.0 | |
| 20260830094903 | 71 | 177 | 0.0 | 5.0 | 0.00 | 0.00 | 0.00 | 1019.0 | |
| 20260830094424 | 71 | 178 | 0.0 | 5.0 | 0.00 | 0.00 | 0.00 | 1019.0 | |
| 20260830093902 | 71 | 177 | 0.0 | 2.0 | 0.00 | 0.00 | 0.00 | 1019.0 | |
| 20260830093403 | 71 | 184 | 0.0 | 3.0 | 0.00 | 0.00 | 0.00 | 1018.3 | |
| 20260830092902 | 71 | 165 | 0.0 | 5.0 | 0.00 | 0.00 | 0.00 | 1018.3 | |
| 20260830092403 | 71 | 180 | 0.0 | 5.0 | 0.00 | 0.00 | 0.00 | 1019.0 | |
| 20260830091903 | 71 | 189 | 0.0 | 4.0 | 0.00 | 0.00 | 0.00 | 1019.0 | |
| 20260830091403 | 71 | 197 | 0.0 | 6.0 | 0.00 | 0.00 | 0.00 | 1019.0 | |
| 20260830090924 | 71 | 189 | 0.0 | 6.0 | 0.00 | 0.00 | 0.00 | 1019.0 | |
| 20260830090403 | 70 | 173 | 0.0 | 5.0 | 0.00 | 0.00 | 0.00 | 1018.7 | |
| 20260830085903 | 71 | 163 | 0.0 | 6.0 | 0.00 | 0.00 | 0.00 | 1018.7 | |
| 20260830085424 | 71 | 158 | 0.0 | 6.0 | 0.00 | 0.00 | 0.00 | 1018.7 | |
| 20260830084903 | 71 | 185 | 1.0 | 6.0 | 0.00 | 0.00 | 0.00 | 1018.7 | |
| 20260830084403 | 71 | 181 | 0.0 | 6.0 | 0.00 | 0.00 | 0.00 | 1018.7 | |
| 20260830083903 | 71 | 158 | 0.0 | 6.0 | 0.00 | 0.00 | 0.00 | 1018.7 | |
| 20260830083402 | 71 | 202 | 0.0 | 6.0 | 0.00 | 0.00 | 0.00 | 1018.7 | |
| 20260830082903 | 71 | 158 | 0.0 | 7.0 | 0.00 | 0.00 | 0.00 | 1019.0 | |
| 20260830082403 | 71 | 138 | 0.0 | 7.0 | 0.00 | 0.00 | 0.00 | 1019.0 | |
| 20260830081903 | 71 | 161 | 0.0 | 2.0 | 0.00 | 0.00 | 0.00 | 1018.7 | |
| 20260830081402 | 71 | 180 | 0.0 | 6.0 | 0.00 | 0.00 | 0.00 | 1018.7 | |
| 20260830080903 | 71 | 180 | 0.0 | 6.0 | 0.00 | 0.00 | 0.00 | 1019.0 | |
| 20260830080424 | 71 | 180 | 0.0 | 6.0 | 0.00 | 0.00 | 0.00 | 1018.7 | |
| 20260830075903 | 71 | 199 | 0.0 | 6.0 | 0.00 | 0.00 | 0.00 | 1019.0 | |
| 20260830075403 | 71 | 180 | 0.0 | 3.0 | 0.00 | 0.00 | 0.00 | 1018.7 | |
| 20260830073903 | 71 | 180 | 0.0 | 6.0 | 0.00 | 0.00 | 0.00 | 1019.3 | |
| 20260830073424 | 71 | 182 | 0.0 | 6.0 | 0.00 | 0.00 | 0.00 | 1019.0 | |
| 20260830072903 | 71 | 202 | 0.0 | 6.0 | 0.00 | 0.00 | 0.00 | 1019.3 | |
| 20260830072445 | 71 | 187 | 0.0 | 6.0 | 0.00 | 0.00 | 0.00 | 1018.7 | |
| 20260830071903 | 71 | 185 | 0.0 | 6.0 | 0.00 | 0.00 | 0.00 | 1019.0 | |
| 20260830071403 | 71 | 188 | 0.0 | 6.0 | 0.00 | 0.00 | 0.00 | 1019.7 | |
| 20260830070903 | 70 | 180 | 0.0 | 6.0 | 0.00 | 0.00 | 0.00 | 1018.7 | |
| 20260830070402 | 70 | 180 | 0.0 | 6.0 | 0.00 | 0.00 | 0.00 | 1019.0 | |
| 20260830065903 | 70 | 178 | 0.0 | 3.0 | 0.00 | 0.00 | 0.00 | 1018.7 | |
| 20260830065403 | 70 | 158 | 0.0 | 6.0 | 0.00 | 0.00 | 0.00 | 1019.0 | |
| 20260830064903 | 70 | 171 | 0.0 | 6.0 | 0.00 | 0.00 | 0.00 | 1019.3 | |
| 20260830064424 | 70 | 173 | 0.0 | 6.0 | 0.00 | 0.00 | 0.00 | 1019.3 | |
| 20260830063903 | 70 | 165 | 0.0 | 6.0 | 0.00 | 0.00 | 0.00 | 1019.0 | |
| 20260830063403 | 69 | 180 | 0.0 | 6.0 | 0.00 | 0.00 | 0.00 | 1019.3 | |
| 20260830062924 | 69 | 180 | 0.0 | 6.0 | 0.00 | 0.00 | 0.00 | 1019.7 | |
| 20260830062403 | 69 | 190 | 1.0 | 6.0 | 0.00 | 0.00 | 0.00 | 1019.0 | |
| 20260830061902 | 69 | 158 | 0.0 | 6.0 | 0.00 | 0.00 | 0.00 | 1019.0 | |
| 20260830061403 | 69 | 315 | 0.0 | 1.0 | 0.00 | 0.00 | 0.00 | 1019.3 | |
| 20260830060903 | 69 | 180 | 0.0 | 6.0 | 0.00 | 0.00 | 0.00 | 1019.0 | |
| 20260830060403 | 70 | 180 | 0.0 | 6.0 | 0.00 | 0.00 | 0.00 | 1019.0 | |
| 20260830055903 | 70 | 202 | 0.0 | 2.0 | 0.00 | 0.00 | 0.00 | 1019.3 | |
| 20260830055402 | 69 | 199 | 0.0 | 2.0 | 0.00 | 0.00 | 0.00 | 1019.0 | |
| 20260830054903 | 69 | 180 | 0.0 | 0.0 | 0.00 | 0.00 | 0.00 | 1019.3 | |
| 20260830054402 | 69 | 158 | 0.0 | 1.0 | 0.00 | 0.00 | 0.00 | 1019.3 | |
| 20260830053903 | 69 | 158 | 0.0 | 6.0 | 0.00 | 0.00 | 0.00 | 1019.0 | |
| 20260830053402 | 69 | 158 | 0.0 | 6.0 | 0.00 | 0.00 | 0.00 | 1019.3 | |
| 20260830052903 | 70 | 188 | 0.0 | 6.0 | 0.00 | 0.00 | 0.00 | 1019.7 | |
| 20260830052403 | 70 | 174 | 0.0 | 6.0 | 0.00 | 0.00 | 0.00 | 1019.3 | |
| 20260830051902 | 70 | 360 | 0.0 | 6.0 | 0.00 | 0.00 | 0.00 | 1019.3 | |
| 20260830051403 | 70 | 180 | 1.0 | 6.0 | 0.00 | 0.00 | 0.00 | 1019.7 | |
| 20260830050904 | 70 | 202 | 0.0 | 6.0 | 0.00 | 0.00 | 0.00 | 1019.3 | |
| 20260830050403 | 70 | 185 | 0.0 | 6.0 | 0.00 | 0.00 | 0.00 | 1019.7 | |
| 20260830045903 | 70 | 180 | 1.0 | 6.0 | 0.00 | 0.00 | 0.00 | 1019.0 |